Temp
-10 -10 -10 -10 -10 -9 -9 -10 -11 -11 -11 -10 -11 -10 -11 -11 -11 -11 -11 -11 -10 -11 -11 -11 -11 -11 -11 -12 -12 -12 -12 -11 -11 -11 -11 -11 -10 -10 -10 -10 -10 -9 -9 -9 -9 -9 -9 -9 -9
-11 -11 -11 -10 -9 -8 -9 -11 -11 -11 -11 -11 -11 -11 -11 -11 -10 -10 -10 -10 -10 -10 -11 -11 -11 -11 -11 -12 -12 -11 -11 -11 -11 -11 -11 -11 -11 -11 -11 -10 -10 -9 -9 -9 -9 -9 -9 -9 -9
-11 -11 -11 -10 -8 -8 -10 -10 -11 -12 -11 -11 -11 -11 -12 -10 -10 -10 -11 -10 -10 -11 -11 -11 -11 -11 -11 -11 -11 -11 -11 -12 -12 -11 -11 -11 -11 -11 -10 -11 -10 -10 -10 -9 -9 -9 -9 -9 -9
-11 -11 -10 -9 -8 -10 -10 -11 -11 -11 -11 -11 -11 -11 -11 -10 -11 -11 -11 -10 -10 -10 -11 -11 -11 -11 -11 -11 -11 -11 -11 -11 -12 -11 -12 -11 -11 -11 -11 -11 -10 -10 -10 -10 -10 -10 -9 -9 -9
-11 -11 -10 -9 -9 -11 -11 -11 -11 -11 -12 -11 -12 -11 -11 -12 -12 -11 -11 -10 -10 -11 -11 -11 -11 -11 -11 -11 -11 -11 -11 -11 -11 -12 -12 -11 -11 -11 -11 -11 -10 -11 -11 -11 -10 -10 -11 -10 -10
-11 -10 -10 -9 -9 -10 -11 -12 -10 -12 -13 -12 -12 -11 -12 -12 -12 -11 -11 -11 -11 -11 -11 -10 -11 -11 -11 -11 -11 -11 -11 -11 -11 -11 -12 -11 -11 -11 -11 -11 -11 -11 -11 -11 -11 -11 -10 -10 -10
-11 -11 -10 -10 -10 -11 -12 -11 -10 -12 -13 -13 -12 -12 -12 -12 -12 -12 -11 -11 -11 -11 -11 -10 -10 -11 -11 -11 -11 -11 -11 -11 -11 -11 -11 -11 -11 -11 -11 -11 -11 -11 -11 -11 -11 -11 -11 -10 -10
-11 -11 -10 -10 -10 -10 -12 -12 -10 -12 -12 -13 -13 -12 -11 -12 -12 -12 -11 -11 -11 -11 -11 -11 -11 -11 -11 -11 -11 -11 -11 -11 -11 -11 -11 -11 -11 -11 -11 -11 -11 -11 -11 -11 -11 -11 -11 -11 -10
-12 -10 -9 -10 -11 -11 -13 -12 -11 -10 -12 -12 -13 -12 -12 -12 -12 -12 -11 -11 -11 -11 -11 -11 -11 -11 -11 -11 -11 -11 -11 -11 -11 -12 -11 -11 -11 -11 -11 -11 -11 -11 -11 -11 -11 -11 -10 -10 -11
-11 -9 -9 -11 -12 -12 -13 -12 -11 -10 -11 -12 -12 -13 -12 -12 -12 -12 -12 -11 -11 -11 -12 -12 -11 -12 -12 -11 -11 -11 -11 -12 -12 -12 -11 -11 -12 -11 -11 -11 -11 -11 -11 -11 -11 -11 -11 -11 -11
-10 -9 -11 -12 -13 -13 -13 -12 -11 -11 -11 -12 -12 -13 -13 -12 -12 -12 -12 -12 -12 -11 -11 -11 -12 -12 -12 -12 -12 -12 -12 -12 -12 -12 -12 -12 -11 -11 -11 -11 -11 -12 -12 -11 -11 -11 -11 -11 -12
-10 -10 -11 -12 -13 -14 -13 -13 -12 -11 -11 -13 -13 -12 -13 -12 -12 -12 -12 -12 -12 -11 -11 -11 -12 -12 -12 -12 -12 -12 -12 -12 -12 -12 -12 -12 -11 -11 -11 -11 -11 -12 -12 -12 -12 -11 -11 -12 -12
-11 -11 -12 -12 -13 -14 -14 -13 -12 -12 -11 -12 -12 -12 -12 -12 -12 -12 -12 -12 -12 -12 -12 -11 -12 -11 -12 -12 -12 -12 -12 -12 -12 -12 -12 -12 -12 -12 -12 -12 -11 -11 -12 -12 -12 -12 -12 -12 -12
-12 -13 -13 -13 -13 -13 -14 -13 -13 -12 -12 -12 -12 -13 -13 -13 -12 -12 -12 -12 -12 -12 -12 -12 -12 -12 -12 -12 -12 -12 -12 -12 -12 -13 -13 -13 -12 -12 -12 -12 -12 -12 -12 -12 -12 -12 -12 -12 -12
-12 -12 -13 -12 -13 -14 -14 -13 -12 -13 -13 -13 -13 -13 -13 -13 -12 -12 -12 -13 -12 -12 -12 -12 -12 -12 -12 -12 -12 -12 -13 -13 -13 -12 -12 -13 -13 -12 -12 -12 -12 -12 -12 -12 -12 -12 -13 -13 -12
-13 -14 -11 -12 -13 -13 -14 -12 -13 -14 -13 -13 -13 -13 -14 -14 -13 -13 -13 -13 -13 -12 -12 -12 -12 -13 -13 -13 -13 -13 -13 -13 -13 -13 -12 -12 -12 -12 -12 -13 -12 -12 -12 -12 -12 -12 -12 -12 -12
-14 -11 -11 -12 -13 -14 -14 -12 -13 -13 -15 -14 -13 -13 -13 -13 -14 -13 -13 -13 -13 -13 -13 -13 -12 -13 -13 -13 -13 -13 -13 -13 -13 -13 -13 -13 -12 -13 -13 -13 -13 -12 -12 -12 -13 -13 -13 -13 -13
-12 -13 -13 -13 -12 -14 -13 -13 -14 -13 -14 -14 -14 -13 -13 -13 -13 -14 -13 -13 -13 -13 -13 -13 -13 -13 -13 -13 -13 -13 -13 -13 -13 -13 -13 -13 -13 -13 -13 -13 -14 -13 -13 -13 -13 -13 -13 -13 -13
-17 -16 -14 -15 -15 -16 -13 -14 -14 -14 -14 -14 -14 -14 -14 -14 -14 -14 -13 -14 -14 -13 -13 -13 -13 -13 -13 -13 -13 -13 -13 -13 -13 -14 -13 -13 -13 -13 -14 -14 -14 -13 -14 -13 -13 -13 -13 -13 -13
-19 -18 -18 -17 -17 -17 -16 -15 -15 -15 -15 -14 -14 -14 -14 -14 -15 -13 -13 -14 -14 -14 -13 -13 -13 -13 -13 -13 -13 -13 -13 -14 -14 -13 -14 -14 -13 -14 -14 -14 -14 -14 -14 -14 -14 -14 -14 -14 -14
-20 -20 -20 -18 -19 -18 -18 -17 -16 -15 -16 -15 -15 -15 -15 -15 -14 -14 -15 -15 -15 -14 -14 -14 -14 -14 -14 -14 -14 -14 -14 -14 -14 -14 -14 -13 -13 -13 -14 -14 -15 -15 -14 -14 -14 -14 -14 -14 -14
-21 -20 -21 -20 -20 -20 -19 -18 -17 -16 -16 -16 -15 -15 -15 -15 -14 -14 -15 -16 -16 -15 -15 -14 -14 -14 -15 -14 -14 -14 -14 -14 -15 -14 -14 -14 -14 -14 -14 -14 -14 -15 -15 -15 -15 -14 -14 -14 -14
-21 -21 -21 -21 -21 -21 -20 -21 -18 -19 -18 -16 -16 -16 -16 -15 -15 -15 -15 -15 -16 -16 -15 -15 -15 -15 -15 -15 -15 -15 -15 -15 -15 -15 -15 -15 -14 -14 -14 -15 -15 -15 -15 -15 -15 -15 -14 -14 -14
-21 -21 -21 -21 -21 -21 -20 -21 -19 -20 -18 -17 -16 -16 -16 -16 -15 -15 -16 -16 -16 -16 -16 -15 -15 -15 -15 -16 -16 -16 -15 -16 -15 -15 -16 -15 -16 -15 -15 -15 -15 -15 -15 -16 -15 -15 -15 -15 -14
-22 -21 -21 -21 -21 -21 -21 -21 -21 -20 -19 -18 -18 -17 -17 -16 -16 -16 -16 -16 -16 -16 -16 -16 -16 -16 -16 -16 -16 -16 -16 -16 -16 -16 -16 -16 -16 -16 -15 -16 -15 -15 -16 -16 -16 -16 -15 -15 -15
-23 -23 -23 -22 -21 -21 -21 -21 -21 -20 -20 -19 -18 -18 -18 -17 -17 -17 -17 -17 -17 -16 -16 -16 -16 -17 -17 -17 -17 -17 -17 -17 -17 -16 -16 -16 -16 -17 -17 -17 -16 -16 -16 -16 -16 -16 -16 -16 -15
-24 -25 -24 -24 -22 -22 -21 -21 -21 -21 -21 -19 -19 -19 -18 -18 -18 -17 -17 -18 -18 -18 -17 -17 -17 -17 -17 -17 -17 -17 -17 -17 -17 -17 -17 -17 -17 -17 -17 -17 -17 -17 -17 -16 -16 -16 -16 -17 -16
-25 -24 -25 -25 -23 -23 -22 -22 -22 -22 -22 -21 -20 -20 -20 -19 -19 -18 -18 -18 -18 -18 -18 -18 -18 -17 -17 -17 -17 -17 -18 -18 -18 -18 -18 -18 -18 -17 -17 -17 -17 -17 -17 -17 -17 -17 -17 -17 -17
-25 -25 -25 -24 -24 -24 -24 -23 -22 -22 -22 -21 -21 -21 -20 -20 -19 -19 -18 -18 -18 -18 -18 -18 -18 -18 -18 -18 -18 -18 -17 -18 -17 -17 -17 -18 -18 -18 -18 -18 -18 -18 -18 -18 -18 -18 -18 -17 -17
-26 -25 -25 -24 -24 -24 -23 -23 -22 -22 -21 -21 -21 -21 -21 -20 -19 -19 -19 -19 -19 -19 -19 -18 -18 -18 -18 -18 -18 -18 -18 -18 -18 -18 -18 -18 -18 -19 -19 -19 -19 -19 -19 -19 -19 -19 -18 -18 -18
Height
5770 5771 5772 5773 5775 5774 5782 5787 5783 5784 5788 5789 5792 5795 5799 5800 5800 5803 5805 5807 5810 5812 5814 5815 5817 5820 5822 5824 5826 5828 5831 5833 5835 5837 5839 5842 5846 5848 5850 5852 5855 5857 5859 5861 5863 5865 5868 5871 5873
5764 5764 5765 5765 5767 5769 5779 5782 5782 5781 5783 5787 5790 5792 5795 5793 5796 5800 5803 5805 5808 5810 5812 5814 5816 5818 5821 5823 5825 5827 5829 5831 5833 5836 5838 5841 5843 5845 5847 5849 5852 5853 5855 5857 5860 5863 5866 5869 5871
5757 5758 5758 5757 5759 5763 5774 5776 5777 5776 5782 5783 5787 5789 5790 5788 5795 5798 5799 5803 5806 5808 5811 5813 5815 5817 5819 5822 5824 5827 5828 5830 5832 5834 5836 5839 5841 5844 5845 5847 5851 5851 5852 5853 5856 5861 5864 5867 5869
5749 5750 5750 5750 5752 5763 5769 5769 5770 5770 5777 5781 5783 5784 5788 5790 5795 5796 5797 5800 5803 5806 5809 5811 5813 5816 5818 5821 5823 5826 5828 5829 5832 5832 5835 5838 5839 5842 5844 5847 5850 5850 5851 5852 5855 5857 5861 5863 5866
5740 5741 5741 5743 5746 5757 5762 5764 5765 5768 5771 5776 5779 5782 5785 5787 5789 5790 5793 5797 5801 5803 5806 5809 5811 5814 5817 5820 5822 5825 5827 5828 5831 5832 5834 5836 5838 5840 5843 5845 5848 5850 5850 5851 5853 5856 5859 5861 5863
5729 5731 5733 5735 5742 5751 5758 5757 5758 5764 5766 5770 5773 5777 5782 5783 5785 5788 5790 5793 5798 5800 5802 5806 5808 5811 5815 5817 5820 5823 5826 5828 5829 5832 5833 5835 5838 5839 5841 5843 5846 5848 5849 5850 5853 5856 5857 5860 5862
5721 5724 5727 5731 5735 5741 5751 5751 5754 5760 5760 5763 5770 5771 5778 5779 5783 5784 5786 5792 5794 5797 5800 5803 5806 5809 5813 5816 5819 5822 5824 5826 5828 5830 5832 5835 5836 5838 5840 5841 5843 5846 5848 5850 5852 5855 5857 5857 5861
5710 5713 5713 5718 5721 5728 5742 5747 5748 5752 5752 5759 5760 5761 5772 5776 5777 5780 5783 5789 5791 5794 5797 5800 5803 5806 5810 5814 5816 5818 5820 5823 5825 5828 5832 5834 5835 5838 5839 5841 5843 5846 5848 5849 5852 5854 5855 5858 5859
5702 5695 5698 5709 5720 5735 5737 5739 5739 5743 5746 5746 5754 5755 5766 5771 5773 5776 5779 5783 5787 5791 5793 5797 5800 5804 5808 5810 5812 5815 5817 5821 5824 5826 5829 5832 5834 5836 5838 5841 5843 5845 5846 5848 5850 5851 5853 5856 5858
5686 5686 5694 5712 5715 5722 5725 5725 5726 5732 5738 5739 5744 5750 5758 5765 5769 5771 5775 5778 5782 5786 5789 5793 5797 5801 5804 5806 5809 5811 5814 5817 5820 5823 5827 5829 5832 5834 5836 5838 5841 5843 5844 5847 5849 5851 5851 5853 5855
5677 5677 5692 5699 5704 5710 5715 5713 5714 5721 5726 5731 5731 5747 5751 5756 5761 5765 5769 5772 5775 5779 5783 5788 5795 5796 5799 5802 5805 5808 5811 5814 5817 5821 5825 5826 5830 5833 5834 5836 5838 5841 5842 5845 5847 5849 5850 5851 5853
5665 5672 5679 5687 5691 5697 5701 5703 5704 5708 5716 5723 5721 5731 5736 5745 5752 5757 5762 5767 5770 5775 5780 5785 5788 5791 5795 5799 5802 5804 5806 5809 5813 5817 5820 5823 5826 5829 5832 5833 5835 5837 5839 5842 5845 5847 5849 5850 5851
5653 5657 5663 5669 5680 5684 5688 5689 5695 5698 5705 5707 5711 5715 5730 5736 5742 5747 5753 5759 5763 5768 5773 5778 5782 5786 5790 5793 5796 5800 5802 5806 5809 5813 5816 5820 5823 5825 5828 5830 5831 5834 5836 5838 5841 5843 5846 5848 5850
5640 5644 5650 5655 5663 5669 5672 5677 5683 5688 5697 5695 5699 5711 5717 5724 5733 5738 5742 5753 5757 5761 5766 5771 5775 5780 5783 5786 5790 5794 5796 5800 5805 5808 5811 5814 5818 5821 5824 5825 5828 5830 5832 5835 5838 5840 5842 5845 5847
5622 5626 5630 5635 5644 5653 5659 5662 5667 5676 5684 5681 5692 5701 5706 5714 5722 5729 5735 5742 5747 5752 5757 5762 5767 5772 5775 5780 5784 5787 5791 5795 5799 5803 5806 5809 5812 5816 5820 5822 5824 5827 5829 5831 5834 5836 5839 5842 5844
5602 5606 5613 5624 5627 5635 5641 5649 5657 5665 5668 5675 5685 5691 5697 5703 5712 5718 5725 5730 5737 5742 5748 5754 5758 5763 5768 5772 5777 5781 5784 5788 5792 5797 5800 5804 5807 5810 5815 5818 5820 5822 5824 5827 5830 5832 5834 5837 5839
5581 5590 5597 5604 5613 5619 5628 5635 5647 5654 5657 5664 5669 5681 5687 5694 5700 5707 5715 5720 5727 5733 5739 5746 5749 5754 5759 5764 5769 5773 5778 5781 5785 5789 5793 5796 5800 5804 5807 5812 5815 5818 5820 5822 5824 5826 5828 5831 5834
5567 5571 5581 5588 5596 5604 5615 5624 5633 5642 5652 5658 5661 5671 5675 5683 5689 5697 5705 5711 5716 5724 5730 5736 5742 5748 5752 5757 5762 5766 5770 5774 5778 5782 5786 5790 5794 5798 5801 5804 5807 5810 5812 5815 5818 5821 5823 5825 5828
5550 5557 5566 5579 5584 5589 5603 5611 5621 5631 5639 5645 5651 5656 5666 5671 5678 5683 5689 5699 5706 5714 5720 5728 5734 5739 5744 5750 5755 5759 5763 5768 5771 5774 5778 5781 5785 5791 5794 5797 5799 5801 5804 5807 5810 5813 5816 5819 5821
5536 5545 5552 5561 5571 5576 5589 5595 5605 5613 5625 5630 5638 5645 5654 5657 5664 5667 5677 5690 5697 5704 5711 5717 5723 5730 5735 5740 5745 5750 5754 5758 5762 5765 5768 5773 5777 5782 5785 5789 5792 5792 5796 5800 5802 5805 5808 5811 5814
5520 5531 5542 5549 5556 5560 5568 5577 5588 5599 5608 5615 5623 5632 5640 5643 5648 5657 5669 5683 5687 5692 5700 5707 5713 5718 5724 5731 5736 5741 5745 5748 5753 5756 5759 5762 5766 5771 5776 5780 5784 5782 5786 5791 5794 5797 5800 5802 5805
5508 5522 5535 5539 5543 5547 5555 5562 5573 5585 5593 5602 5609 5617 5626 5632 5639 5650 5663 5667 5676 5681 5688 5695 5701 5707 5713 5719 5725 5731 5735 5739 5743 5745 5748 5752 5756 5759 5765 5770 5774 5776 5777 5780 5784 5788 5791 5794 5796
5498 5508 5519 5529 5532 5540 5542 5549 5561 5570 5576 5591 5599 5608 5616 5622 5629 5639 5646 5653 5663 5671 5677 5684 5690 5696 5702 5708 5714 5719 5725 5728 5733 5736 5739 5742 5746 5749 5753 5759 5763 5767 5769 5771 5774 5777 5780 5783 5786
5487 5497 5508 5517 5523 5520 5531 5540 5549 5555 5568 5578 5586 5597 5602 5610 5618 5629 5638 5642 5650 5659 5666 5672 5678 5685 5691 5695 5701 5707 5713 5718 5721 5725 5729 5732 5735 5738 5742 5748 5753 5757 5761 5762 5763 5766 5768 5771 5774
5475 5486 5494 5503 5505 5511 5521 5529 5534 5543 5554 5566 5576 5584 5591 5599 5609 5614 5622 5630 5637 5645 5653 5660 5667 5673 5679 5683 5689 5695 5700 5707 5710 5713 5717 5722 5726 5730 5732 5736 5742 5746 5750 5752 5754 5753 5755 5759 5762
5468 5478 5485 5492 5498 5505 5514 5518 5522 5530 5543 5554 5566 5574 5580 5587 5596 5603 5609 5617 5624 5632 5639 5647 5653 5660 5667 5673 5678 5683 5688 5693 5698 5701 5706 5711 5714 5718 5723 5725 5729 5734 5738 5741 5742 5742 5743 5747 5750
5459 5465 5476 5485 5492 5497 5504 5509 5516 5523 5532 5543 5555 5563 5570 5578 5586 5592 5599 5605 5612 5620 5627 5634 5641 5648 5655 5660 5666 5672 5677 5683 5687 5692 5696 5701 5704 5708 5710 5714 5717 5720 5723 5727 5730 5733 5735 5736 5737
5455 5460 5467 5475 5483 5489 5496 5504 5510 5518 5527 5535 5544 5553 5560 5567 5574 5582 5589 5595 5601 5608 5615 5621 5629 5636 5642 5649 5655 5661 5666 5671 5677 5681 5685 5689 5693 5696 5699 5700 5702 5705 5709 5714 5717 5719 5721 5724 5725
5453 5457 5461 5469 5477 5485 5492 5495 5504 5512 5520 5527 5533 5541 5549 5556 5563 5571 5577 5584 5591 5597 5604 5612 5618 5625 5632 5638 5644 5650 5655 5659 5665 5668 5673 5675 5678 5681 5684 5686 5689 5693 5695 5698 5701 5704 5706 5708 5710
5448 5453 5460 5465 5475 5483 5483 5487 5497 5504 5510 5516 5522 5529 5536 5543 5550 5558 5566 5573 5580 5586 5593 5600 5607 5614 5620 5627 5633 5639 5643 5648 5652 5656 5660 5663 5666 5669 5673 5675 5678 5681 5683 5684 5686 5688 5690 5693 5695
Wind_Speed
33 33 32 32 33 30 18 13 22 23 19 19 15 14 16 19 23 22 21 20 19 18 16 15 15 15 16 17 18 18 19 20 20 21 22 22 20 22 25 23 22 24 24 23 22 18 16 15 15
38 37 37 36 36 31 18 19 22 25 24 19 17 16 18 24 24 21 19 22 20 19 17 16 15 15 16 17 17 16 17 16 18 20 20 21 22 21 24 22 21 18 20 28 25 22 19 18 18
41 41 41 41 38 34 20 24 26 29 24 23 19 16 23 26 21 19 22 22 21 20 18 17 17 17 16 14 14 14 14 15 16 19 20 21 20 22 23 20 19 17 15 17 18 21 19 20 21
40 44 46 44 40 31 25 30 33 34 26 23 23 22 22 18 14 17 23 23 23 21 20 20 20 19 18 16 15 14 13 12 15 13 19 17 18 20 20 18 18 8 14 7 12 15 16 24 24
42 43 46 46 45 37 29 31 34 29 32 26 25 24 21 22 24 27 24 23 22 23 24 23 23 21 20 19 18 17 15 14 11 8 20 14 15 17 16 17 21 20 15 13 11 8 11 8 23
46 46 46 46 45 39 32 35 36 29 29 32 31 30 26 25 26 26 26 26 24 25 25 25 25 24 22 21 19 18 16 15 11 8 9 15 14 14 15 15 16 18 19 18 14 14 14 17 17
47 45 45 43 43 44 36 40 38 33 36 36 32 34 30 30 27 28 27 22 25 25 25 25 26 26 24 22 20 18 17 16 15 13 11 12 14 14 12 13 14 16 17 15 15 15 8 16 19
46 49 50 49 48 47 39 38 39 38 41 35 40 41 34 31 31 30 29 26 26 24 25 26 26 26 26 23 22 22 21 20 20 16 13 11 14 14 14 12 11 9 8 6 7 8 4 8 12
47 51 52 49 44 27 27 39 46 43 43 48 44 44 37 33 33 31 31 29 28 27 27 25 26 25 25 26 26 25 25 22 20 18 15 15 15 15 14 12 11 10 11 11 10 8 11 10 14
50 50 44 32 36 29 30 43 51 48 45 48 50 46 40 36 35 35 33 32 31 30 30 30 29 25 25 27 28 27 27 25 24 23 19 20 17 20 15 15 14 12 13 13 13 11 9 9 13
51 49 42 36 35 35 35 45 52 52 51 50 55 43 43 43 42 40 38 36 35 35 34 32 27 29 30 29 29 29 28 27 27 25 25 23 21 22 19 19 18 15 14 15 14 10 10 9 10
50 46 44 42 41 41 43 48 52 53 54 49 53 52 52 50 46 45 43 39 37 35 33 32 32 32 30 30 29 30 31 30 28 27 27 26 26 26 24 23 22 21 19 17 16 15 14 12 12
51 51 48 49 45 44 47 52 52 53 53 56 56 59 52 51 50 50 47 43 41 38 37 36 36 35 33 32 33 34 34 32 30 30 29 29 29 28 27 27 27 26 24 21 19 17 16 15 14
57 55 52 52 50 50 53 55 53 56 50 58 60 52 51 51 50 51 51 44 43 42 40 39 39 38 37 37 35 35 36 35 32 32 31 30 29 28 27 26 26 27 26 23 22 21 19 18 18
61 62 61 59 58 56 55 58 56 56 55 60 58 52 51 50 50 49 48 45 45 46 45 44 42 42 41 39 38 36 35 34 35 35 35 33 32 30 28 28 27 26 26 25 23 23 22 22 21
66 66 67 63 62 61 63 61 60 58 60 60 57 54 52 50 46 47 48 46 46 47 47 45 44 43 43 41 40 38 36 34 34 35 36 36 35 35 32 31 30 30 28 27 25 24 24 24 25
72 72 70 69 66 65 65 65 61 61 62 61 62 57 56 54 50 49 47 47 46 46 46 45 46 45 44 42 41 41 40 40 38 37 36 37 37 37 37 34 33 33 32 32 30 28 27 27 27
77 77 74 71 69 67 65 64 64 63 60 59 61 58 59 57 56 52 50 50 50 48 48 47 46 46 45 45 43 43 42 40 37 38 38 37 36 37 37 38 37 36 36 35 35 34 33 31 30
74 73 75 72 70 66 64 63 60 61 61 63 63 62 59 59 57 58 59 55 53 50 50 49 48 46 46 44 44 43 42 42 43 43 41 41 39 36 37 39 40 40 39 39 38 37 36 36 35
70 71 72 71 68 72 67 65 60 58 59 65 66 65 62 61 60 64 64 56 54 53 53 52 51 49 49 47 46 44 45 45 45 45 46 44 43 41 40 39 40 44 43 42 42 41 40 38 38
68 67 64 69 62 65 63 65 64 64 61 64 65 66 64 67 69 67 59 52 55 56 56 55 55 52 51 49 50 47 49 48 48 47 47 47 46 45 43 41 41 45 46 44 44 44 44 43 43
56 64 52 63 61 59 62 62 60 59 61 61 65 66 63 68 71 66 58 57 56 57 57 58 57 56 53 52 50 51 52 50 50 50 51 50 49 48 45 44 45 46 49 47 45 46 46 46 47
53 43 56 52 53 52 53 52 59 51 53 56 62 62 62 64 66 63 61 62 59 57 58 59 58 58 57 57 57 56 53 54 54 54 54 53 52 52 49 46 47 45 47 48 48 48 48 48 49
39 43 47 47 52 55 50 48 53 48 53 54 58 57 59 61 65 62 59 60 58 58 58 59 60 60 58 58 56 56 54 54 55 55 55 56 54 52 50 49 46 43 44 47 49 50 50 50 51
34 38 34 47 55 44 45 43 47 43 44 52 51 53 56 57 60 60 58 59 59 59 59 60 61 62 61 61 60 58 58 55 57 58 57 56 53 48 54 53 47 45 44 47 48 52 53 52 51
50 43 40 29 45 49 38 44 53 51 46 52 47 48 51 52 53 55 56 53 55 57 58 60 61 62 62 61 61 60 61 59 58 59 57 54 54 54 56 53 52 54 49 51 51 55 57 54 53
58 53 49 50 32 35 40 41 40 42 42 44 47 49 49 49 50 50 52 55 54 52 53 56 59 61 61 62 62 61 59 58 56 55 56 54 55 55 55 55 55 56 55 55 56 56 56 57 58
43 52 48 53 57 44 37 38 41 40 37 36 37 42 47 47 50 50 50 51 51 52 52 53 54 55 56 56 56 54 52 52 51 55 54 57 57 57 57 60 62 61 59 58 58 59 61 60 61
29 29 40 45 48 48 41 47 45 49 50 50 50 52 53 49 50 52 53 55 54 53 53 52 53 53 54 56 57 57 59 60 60 62 62 62 61 61 62 64 64 63 63 62 60 58 59 60 61
26 28 28 34 40 33 27 31 31 36 40 44 46 48 46 45 46 50 52 54 56 57 56 54 53 53 53 54 55 58 62 60 61 64 65 64 63 61 59 59 60 61 62 62 63 63 64 65 66
Wind_Direction
240 241 243 243 244 246 236 227 224 229 225 227 226 222 216 220 223 231 220 220 215 214 210 210 210 216 221 218 213 212 214 221 217 216 213 211 211 211 214 215 216 218 220 220 220 217 213 215 212
244 241 240 241 244 245 226 222 235 232 226 222 224 217 206 220 224 227 219 218 214 211 208 209 210 213 215 216 214 216 217 221 222 218 212 213 213 220 214 216 216 222 219 221 218 214 214 214 216
242 242 241 241 240 240 225 222 226 233 225 222 217 214 205 225 222 223 220 218 214 211 208 206 207 200 201 206 207 212 218 217 217 219 215 215 212 216 214 216 222 252 250 191 196 213 220 223 220
243 243 243 242 244 238 227 229 224 231 230 224 220 218 215 230 207 221 223 218 216 209 211 207 208 203 204 206 210 213 219 218 218 222 210 209 210 214 221 225 217 197 208 228 224 222 218 233 223
247 245 244 244 243 236 227 231 229 237 230 223 220 211 208 209 201 210 214 216 214 207 212 211 212 210 211 214 217 220 223 231 233 237 198 198 207 213 218 219 222 238 250 239 239 248 281 247 219
249 248 247 246 248 246 232 232 230 217 231 224 220 214 208 207 208 213 216 215 211 213 213 214 215 214 214 217 222 225 228 235 233 230 210 201 208 208 213 216 220 231 237 247 258 266 265 242 211
252 253 253 251 249 245 232 234 230 223 229 225 223 225 209 214 210 216 220 211 216 215 218 219 219 217 219 223 225 226 230 232 234 229 223 192 212 207 209 211 218 223 238 253 244 258 268 213 214
250 249 247 244 242 242 230 233 237 226 232 228 224 228 215 220 218 219 224 217 217 215 218 220 220 219 218 221 224 226 227 229 234 236 230 213 200 204 209 212 217 224 240 253 239 206 85 212 217
248 250 249 246 250 266 233 232 235 226 230 229 223 230 225 222 223 222 225 226 223 221 224 221 222 221 220 219 224 227 230 231 235 237 224 218 208 216 210 220 231 235 229 226 228 224 208 215 196
250 253 254 257 249 242 222 224 229 230 225 236 230 229 233 223 228 229 228 229 231 228 225 226 221 221 221 221 225 225 227 225 229 231 230 227 219 220 231 241 237 231 239 238 235 237 227 221 221
251 253 254 243 239 232 224 225 228 227 225 231 238 231 231 231 229 231 232 231 231 231 230 228 227 226 224 225 224 227 228 227 229 230 226 229 228 221 242 247 249 245 238 240 246 240 232 222 216
252 253 252 244 232 228 224 228 228 229 225 230 238 231 230 227 228 232 233 234 237 237 237 234 230 231 231 229 230 228 228 230 231 235 232 234 233 232 238 246 251 252 250 245 233 232 230 224 216
248 247 243 242 237 229 225 229 231 228 230 233 233 236 232 232 229 232 233 232 236 238 237 235 235 234 236 235 232 233 234 235 236 235 238 240 241 242 243 242 245 250 253 249 246 236 230 229 230
246 245 242 239 235 231 227 227 229 233 226 235 235 235 234 233 232 233 236 235 238 242 242 239 236 235 235 236 235 234 237 241 237 239 240 241 245 246 244 243 242 245 249 248 247 242 236 232 229
243 244 240 234 231 230 230 226 222 230 232 236 235 236 238 236 234 234 236 233 235 239 240 241 238 237 234 233 236 237 237 239 241 240 243 242 245 243 244 245 248 249 250 251 249 247 244 239 236
239 240 241 237 234 227 228 228 227 223 229 233 234 235 237 239 237 234 236 236 235 237 238 236 237 234 236 234 234 235 235 234 235 240 242 244 246 250 247 248 248 253 253 255 253 250 249 247 246
237 242 242 241 237 235 229 232 228 227 228 228 234 235 237 239 238 238 236 236 233 235 236 236 235 233 233 235 236 236 234 235 238 241 240 241 243 245 249 248 249 249 251 251 251 252 252 252 251
241 239 237 240 241 236 234 233 231 232 229 233 237 230 235 235 238 237 237 237 235 233 234 235 234 233 234 235 233 235 238 239 240 242 242 244 243 246 247 250 246 246 246 247 249 248 248 250 252
233 237 239 238 239 240 239 235 235 232 232 231 234 235 232 234 233 235 236 231 233 233 234 235 235 236 235 235 237 238 239 239 244 244 246 250 247 242 245 246 251 248 247 247 248 249 248 248 249
234 233 235 240 237 240 240 241 235 231 229 231 231 234 234 235 230 235 235 229 232 233 234 236 236 235 236 239 237 236 240 240 240 245 249 247 251 248 246 245 248 251 247 248 250 250 252 251 251
232 232 231 240 240 242 241 238 234 232 228 228 230 231 231 234 234 233 235 230 230 231 233 235 237 236 237 233 238 240 238 241 245 246 248 250 251 250 248 247 244 249 252 249 249 251 251 252 253
235 233 236 238 240 244 244 245 237 235 233 228 229 230 231 234 237 239 233 235 229 230 230 232 236 238 237 239 237 234 238 242 239 244 246 247 249 251 249 246 245 248 254 253 253 253 253 253 253
227 221 226 232 241 242 238 241 240 234 231 229 230 233 233 235 235 235 236 235 233 231 231 231 233 237 237 237 237 237 237 238 242 244 245 246 248 250 249 247 246 245 247 254 255 255 256 255 255
200 215 222 220 222 229 232 235 239 237 234 230 230 229 231 234 237 238 237 238 236 234 235 235 233 235 235 238 239 239 239 241 242 243 245 248 250 251 251 250 248 250 251 251 254 255 254 254 255
214 194 198 215 215 227 236 243 243 237 233 229 229 230 231 233 234 238 237 235 237 236 234 235 236 237 237 238 239 240 241 240 241 244 245 247 250 247 248 254 250 247 251 254 254 257 256 255 256
217 220 219 214 206 216 222 225 220 234 242 235 227 227 229 230 231 233 236 236 235 234 233 233 235 237 239 240 241 240 242 243 245 247 249 250 250 249 249 254 253 253 253 252 253 255 259 259 259
230 233 229 227 204 208 213 200 211 224 225 232 231 231 230 229 229 230 231 236 234 231 232 233 233 236 238 239 241 243 245 247 248 249 251 249 250 252 255 255 256 257 255 254 254 257 259 261 262
215 226 229 225 229 219 220 219 223 214 220 227 232 229 225 227 228 229 230 231 234 234 231 231 231 232 235 238 240 243 244 245 245 247 248 249 249 251 252 254 256 258 259 259 257 257 258 257 259
193 209 218 221 227 232 237 237 239 240 243 246 249 247 243 239 234 230 229 229 232 234 234 232 229 227 228 229 231 234 236 239 238 241 241 244 248 250 250 253 254 257 259 260 261 260 259 259 258
194 194 195 210 214 210 224 233 232 225 232 236 238 238 237 233 229 227 227 229 229 230 232 235 235 235 235 235 235 236 240 242 244 245 248 249 253 254 256 258 259 260 261 261 261 260 260 259 259